Flag for U.S.A. Weather past 2 weeks in Dayton, Ohio, U.S.A.

Now
74 °F

Sunny.


Feels Like: 77 °F
Forecast: 64 / 77 °F
Wind: 12 mph from Northeast

Location: Dayton / Wright-Patterson Air Force Base

Current Time: Jul 2, 2015 at 7:31:09 PM

Latest Report: Jul 2, 2015 at 6:58 PM


Visibility: 10 mi

Pressure: 29.90 "Hg

Humidity: 61%

Dew point: 60 °F

Location of DaytonLocation

Historic Weather in Dayton — Graph

°F

Dayton temperature yesterday

Maximum temperature yesterday: 78 °F (at 4:58 PM)
Minimum temperature yesterday: 60 °F (at 6:58 AM)
Average temperature yesterday: 70 °F

Past Weeks' High & Low Weather Summary

 TemperatureHumidityPressure
High88 °F (Jun 22, 4:58 PM)100% (Jun 18, 12:58 AM)30.18 "Hg (Jun 18, 12:58 AM)
Low58 °F (Jun 24, 5:58 AM)13% (Jun 20, 4:58 PM)29.69 "Hg (Jun 27, 7:58 AM)
Average71 °F76%29.93 "Hg
* Reported Jun 17 5:58 PM — Jul 2 5:58 PM, Dayton, Weather by CustomWeather, © 2015

Note: Actual official high and low records may vary slightly from our data, if they occured in-between our weather recording intervals... More about our weather records

Advertising

Dayton weather history for previous 24 hours

 ConditionsComfort  
Time TempWeatherWind HumidityBarometerVisibility
5:58 PM
Thu, Jul 2
76 °FPassing clouds.10 mph62%29.90 "Hg10 mi
4:58 PM76 °FSunny.10 mph63%29.90 "Hg10 mi
3:58 PM75 °FPartly sunny.10 mph65%29.90 "Hg10 mi
2:58 PM74 °FScattered clouds.12 mph68%29.91 "Hg10 mi
1:58 PM73 °FPassing clouds.9 mph69%29.91 "Hg10 mi
12:58 PM72 °FScattered clouds.10 mph70%29.91 "Hg10 mi
11:58 AM70 °FSunny.8 mph76%29.93 "Hg10 mi
10:58 AM69 °FPassing clouds.6 mph77%29.93 "Hg10 mi
9:58 AM68 °FSunny.6 mph79%29.93 "Hg10 mi
8:58 AM66 °FPartly sunny.6 mph84%29.91 "Hg10 mi
7:58 AM65 °FScattered clouds.5 mph87%29.90 "Hg10 mi
6:58 AM65 °FClear.3 mph85%29.90 "Hg10 mi
5:58 AM65 °FPassing clouds.3 mph87%29.91 "Hg10 mi
4:58 AM65 °FClear.5 mph89%29.90 "Hg10 mi
3:58 AM65 °FPassing clouds.3 mph89%29.90 "Hg10 mi
2:58 AM66 °FPassing clouds.No wind84%29.91 "Hg10 mi
1:58 AM65 °FPassing clouds.2 mph93%29.93 "Hg10 mi
12:58 AM67 °FPassing clouds.No wind90%29.93 "Hg10 mi
11:58 PM
Wed, Jul 1
67 °FPassing clouds.2 mph89%29.93 "Hg10 mi
10:58 PM69 °FClear.2 mph74%29.93 "Hg10 mi
9:58 PM71 °FScattered clouds.No wind75%29.92 "Hg9 mi
8:58 PM74 °FScattered clouds.2 mph58%29.91 "Hg10 mi
7:58 PM76 °FPassing clouds.5 mph54%29.90 "Hg10 mi
Weather by CustomWeather, © 2015

See weather overviewHow to use our weather pages